DELTA 1 DEB, 21464

Orbit data source: Space-Track

DELTA 1 DEB, 21464 is space debris in SSO originally from a launch on Thu, 12 Jun 1975 UTC launched from the Air Force Western Test Range (AFWTR). Debris objects in space refer to the collection of defunct objects orbiting the Earth. Examples of debris include non-operational satellites, rocket bodies, and fragments generated from explosions, collisions, or faulty payload assembly.

Loading next visibility...
Identifier
21464, 1975-052EY
Orbit
SSO
Country
Flag of USUS
Related business
Manufacturer
Unknown
Mission
Spacecraft
Bus & Motor
Unknown
Mass
Unknown
Launch date (UTC)
1975-06-12 (51 years ago)
Launch vehicle
Unknown
Launch site
Air Force Western Test Range (AFWTR)
Object type
Payload
Rocket body
Debris
Shape & HBR
Unknown shape, 0.1 m
Radar Cross Section
Medium (>0.1 m² and <1 m²)

Expand to show TLE details & history
Last TLE update: 2 days ago

TLE from 2 days ago
0 DELTA 1 DEB
1 21464U 75052EY  26171.32246852  .00002079  00000-0  47749-2 0  9996
2 21464  99.7755  93.5839 0215535  34.5936  85.3582 13.18502350661876
Epoch: 2026-06-20T07:44Z
TLE epoch observation values (Epoch: 2026-06-20T07:44:21.280Z)
Latitude
56.39048°
Longitude
-96.09748°
Altitude
1,190.055 km
Speed
7.269 km/s
True Right ascension
19h 14m 07s
True Declination
56° 14' 27"
Sunlit
Object was in daylight at epoch
Visualization orbit readout
Latitude
Unknown
Longitude
Unknown
Altitude
Unknown
Speed
Unknown
Apparent Right ascension
Unknown
Apparent Declination
Unknown
Sunlit
N/A
Visualization observer readout
Local Sidereal Time
15:46:26
Azimuth
Unknown
Elevation
Unknown
Doppler factor
Unknown
Orbital elements
Apogee altitude
1,350.864 km
Perigee altitude
1,024.719 km
Semi-major axis
7,565.928 km
Eccentricity
0.02155
Inclination
99.7755°
RAAN
93.5839°
Arg. of periapsis
34.5936°
True anomaly
87.82456°
Mean anomaly
85.3582°
Eccentric anomaly
86.59094°
Mean motion
3.29799 °/min
Orbital period
109.16 mins
BSTAR
0.0047749
Loading maneuver chart data...
Computing Atmospheric mass density...

Documentation

Showing up to 5 results
|